Location: Kearney
(40.6990°N, 99.0810°W)
Time: 10:07:05
(UTC-06:00)

RESURS DK-1 - Pass Details

Date: 18 December 2017
Orbit: 556 x 563 km, 69.9° (Epoch: 23 January)

Event Time Altitude Azimuth Distance (km) Brightness Sun altitude
Rises 18:35:51 0° 188° (S) 2,721 6.2 -15.5°
Reaches altitude 10° 18:38:06 10° 182° (S) 1,831 5.2 -15.9°
Maximum altitude 18:42:00 44° 110° (ESE) 777 2.7 -16.6°
Enters shadow 18:43:10 34° 67° (ENE) 923 2.9 -16.8°
